EW0609 Weather Reports


time (UTC)temp
C
wind
direction
speed
KPH
gust
KPH
rain 1hr
cm
rain 24hr
cm
rain mn
cm
humidity
%
barometer
mb
20260504170229 28 265 11.3 32.2 0.00 0.00 0.00 25 1008.8
20260504160228 26 299 8.0 19.3 0.00 0.00 0.00 29 1009.0
20260504150730 23 275 9.7 20.9 0.00 0.00 0.00 38 1009.4
20260504150228 22 281 9.7 20.9 0.00 0.00 0.00 40 1009.5
20260504150117 22 289 9.7 22.5 0.00 0.00 0.00 41 1009.4
20260504141227 18 228 8.0 16.1 0.00 0.00 0.00 53 1009.5
20260504140728 18 235 6.4 19.3 0.00 0.00 0.00 53 1009.4
20260504140226 18 262 8.0 19.3 0.00 0.00 0.00 53 1009.1
20260504130727 16 230 8.0 16.1 0.00 0.00 0.00 57 1008.9
20260504130228 16 262 9.7 22.5 0.00 0.00 0.00 57 1008.8
20260504120119 15 226 11.3 22.5 0.00 0.00 0.00 61 1008.3
20260504110227 15 228 12.9 24.1 0.00 0.00 0.00 61 1008.3
20260504110124 15 202 9.7 24.1 0.00 0.00 0.00 61 1008.1
20260504100228 15 226 9.7 19.3 0.00 0.00 0.00 61 1008.7
20260504081727 16 221 11.3 24.1 0.00 0.00 0.00 54 1009.4
20260504081228 16 221 11.3 32.2 0.00 0.00 0.00 54 1009.4
20260504080728 16 210 11.3 32.2 0.00 0.00 0.00 53 1009.5
20260504080227 16 269 11.3 29.0 0.00 0.00 0.00 53 1009.5
20260504080107 16 223 11.3 29.0 0.00 0.00 0.00 53 1009.5
20260504070228 16 224 9.7 17.7 0.00 0.00 0.00 51 1010.5
20260504060227 17 192 12.9 24.1 0.00 0.00 0.00 46 1011.0
20260504060120 17 207 9.7 22.5 0.00 0.00 0.00 46 1011.0
20260504050726 16 175 8.0 16.1 0.00 0.00 0.00 42 1011.4
20260504050504 16 175 8.0 16.1 0.00 0.00 0.00 42 1011.5
20260504050353 16 165 8.0 16.1 0.00 0.00 0.00 42 1011.5
20260504045607 16 227 6.4 16.1 0.00 0.00 0.00 42 1011.6
20260504044728 16 224 6.4 16.1 0.00 0.00 0.00 42 1011.5
20260504044227 16 180 6.4 16.1 0.00 0.00 0.00 42 1011.6
20260504043726 16 204 6.4 14.5 0.00 0.00 0.00 42 1011.6
20260504043228 16 175 6.4 11.3 0.00 0.00 0.00 41 1011.7
20260504042726 17 162 4.8 11.3 0.00 0.00 0.00 41 1011.7
20260504042227 17 171 6.4 9.7 0.00 0.00 0.00 39 1011.7
20260504041727 17 158 4.8 9.7 0.00 0.00 0.00 39 1011.7
20260504041227 17 165 4.8 9.7 0.00 0.00 0.00 38 1011.6
20260504040726 18 161 4.8 11.3 0.00 0.00 0.00 38 1011.7
20260504040619 18 200 4.8 11.3 0.00 0.00 0.00 38 1011.8
20260504035726 18 178 3.2 9.7 0.00 0.00 0.00 38 1011.7
20260504035226 18 148 6.4 14.5 0.00 0.00 0.00 37 1011.8
20260504034727 18 159 6.4 14.5 0.00 0.00 0.00 37 1011.8
20260504034614 18 164 6.4 11.3 0.00 0.00 0.00 36 1011.9
20260504033726 19 173 6.4 11.3 0.00 0.00 0.00 36 1012.0
20260504033226 19 176 4.8 14.5 0.00 0.00 0.00 36 1011.9
20260504032726 19 233 6.4 14.5 0.00 0.00 0.00 37 1011.9
20260504032228 19 213 6.4 14.5 0.00 0.00 0.00 36 1011.8
20260504031726 19 195 6.4 14.5 0.00 0.00 0.00 36 1011.8
20260504031225 19 233 6.4 14.5 0.00 0.00 0.00 36 1011.8
20260504030726 19 202 3.2 14.5 0.00 0.00 0.00 36 1011.7
20260504030227 19 189 6.4 14.5 0.00 0.00 0.00 35 1011.7
20260504025726 20 190 4.8 14.5 0.00 0.00 0.00 35 1011.7
20260504025230 20 203 6.4 16.1 0.00 0.00 0.00 34 1011.6
20260504024728 20 206 8.0 16.1 0.00 0.00 0.00 34 1011.7
20260504024227 20 210 6.4 14.5 0.00 0.00 0.00 34 1011.6
20260504023725 20 196 4.8 14.5 0.00 0.00 0.00 34 1011.7
20260504023611 20 200 6.4 14.5 0.00 0.00 0.00 34 1011.6
20260504023106 20 214 6.4 14.5 0.00 0.00 0.00 34 1011.6
20260504022618 20 223 3.2 14.5 0.00 0.00 0.00 34 1011.5
20260504022017 21 210 6.4 14.5 0.00 0.00 0.00 33 1011.5
20260504021900 21 192 3.2 14.5 0.00 0.00 0.00 32 1011.6
20260504020725 21 202 4.8 14.5 0.00 0.00 0.00 32 1011.5
20260504020612 21 216 4.8 17.7 0.00 0.00 0.00 32 1011.5
20260504015725 21 248 6.4 17.7 0.00 0.00 0.00 32 1011.4
20260504015226 21 288 6.4 17.7 0.00 0.00 0.00 32 1011.3
20260504014726 21 223 4.8 17.7 0.00 0.00 0.00 32 1011.4
20260504014226 22 185 8.0 17.7 0.00 0.00 0.00 31 1011.4
20260504013726 22 231 8.0 14.5 0.00 0.00 0.00 31 1011.4
20260504013227 22 193 6.4 17.7 0.00 0.00 0.00 32 1011.4
20260504012726 22 212 6.4 17.7 0.00 0.00 0.00 30 1011.3
20260504012508 22 183 8.0 22.5 0.00 0.00 0.00 31 1011.3
20260504012354 22 210 8.0 22.5 0.00 0.00 0.00 30 1011.3
20260504011227 23 141 9.7 33.8 0.00 0.00 0.00 29 1011.3
20260504010728 23 243 14.5 33.8 0.00 0.00 0.00 29 1011.3
20260504010610 23 234 9.7 24.1 0.00 0.00 0.00 28 1011.4
20260504005727 23 207 11.3 24.1 0.00 0.00 0.00 29 1011.4
20260504005226 23 203 12.9 24.1 0.00 0.00 0.00 29 1011.5
20260504004728 23 241 6.4 25.7 0.00 0.00 0.00 29 1011.4
20260504004230 23 195 12.9 33.8 0.00 0.00 0.00 28 1011.4
20260504004111 23 186 12.9 33.8 0.00 0.00 0.00 29 1011.4
20260504003226 23 162 11.3 29.0 0.00 0.00 0.00 29 1011.5
20260504002727 23 103 11.3 27.4 0.00 0.00 0.00 28 1011.5
20260504002227 24 192 11.3 29.0 0.00 0.00 0.00 27 1011.5
20260504001726 24 202 14.5 30.6 0.00 0.00 0.00 27 1011.6
20260504001228 24 140 16.1 30.6 0.00 0.00 0.00 27 1011.4
20260504000726 24 293 12.9 27.4 0.00 0.00 0.00 27 1011.4
20260504000227 25 190 12.9 25.7 0.00 0.00 0.00 27 1011.6
20260503235727 25 193 16.1 27.4 0.00 0.00 0.00 26 1011.7
20260503235226 25 238 12.9 27.4 0.00 0.00 0.00 26 1011.6
20260503234725 25 226 14.5 29.0 0.00 0.00 0.00 26 1011.6
20260503234227 25 185 9.7 29.0 0.00 0.00 0.00 26 1011.6
20260503233726 25 196 9.7 29.0 0.00 0.00 0.00 24 1011.7
20260503233616 25 203 11.3 29.0 0.00 0.00 0.00 22 1011.7
20260503232727 25 306 8.0 25.7 0.00 0.00 0.00 23 1011.7
20260503232227 25 221 12.9 25.7 0.00 0.00 0.00 23 1011.7
20260503231727 25 196 9.7 30.6 0.00 0.00 0.00 24 1011.6
20260503231225 26 238 16.1 30.6 0.00 0.00 0.00 21 1011.6
20260503230725 26 217 12.9 25.7 0.00 0.00 0.00 20 1011.7
20260503230227 26 221 14.5 25.7 0.00 0.00 0.00 20 1011.7
20260503225726 26 162 9.7 27.4 0.00 0.00 0.00 21 1011.8
20260503225227 25 157 9.7 27.4 0.00 0.00 0.00 22 1012.0
20260503224728 26 206 11.3 25.7 0.00 0.00 0.00 21 1011.9
20260503224615 26 192 9.7 27.4 0.00 0.00 0.00 23 1011.9
20260503223726 26 276 14.5 29.0 0.00 0.00 0.00 23 1012.2
20260503223227 26 252 14.5 29.0 0.00 0.00 0.00 23 1012.0
20260503222726 26 161 14.5 29.0 0.00 0.00 0.00 24 1012.3
20260503222226 25 183 14.5 29.0 0.00 0.00 0.00 24 1012.4
20260503221726 26 200 12.9 29.0 0.00 0.00 0.00 23 1012.5
20260503221452 26 255 14.5 29.0 0.00 0.00 0.00 24 1012.5
20260503214726 26 227 11.3 30.6 0.00 0.00 0.00 24 1013.2
20260503214228 26 196 9.7 27.4 0.00 0.00 0.00 24 1013.0
20260503213727 25 185 14.5 25.7 0.00 0.00 0.00 25 1013.2
20260503213226 26 286 14.5 32.2 0.00 0.00 0.00 24 1013.3
20260503212727 26 209 17.7 32.2 0.00 0.00 0.00 25 1013.5
20260503212227 26 217 16.1 29.0 0.00 0.00 0.00 23 1013.4
20260503211726 26 303 14.5 29.0 0.00 0.00 0.00 25 1013.7
20260503211226 26 227 11.3 30.6 0.00 0.00 0.00 24 1013.7
20260503210726 26 213 17.7 30.6 0.00 0.00 0.00 25 1013.8
20260503210615 26 209 12.9 25.7 0.00 0.00 0.00 26 1013.8
20260503210124 26 212 9.7 25.7 0.00 0.00 0.00 25 1014.0
20260503205226 26 233 11.3 37.0 0.00 0.00 0.00 25 1014.0
20260503204725 26 190 16.1 37.0 0.00 0.00 0.00 25 1014.3
20260503204226 25 237 11.3 30.6 0.00 0.00 0.00 25 1014.4
20260503203729 26 213 16.1 30.6 0.00 0.00 0.00 24 1014.5
20260503203547 26 238 14.5 32.2 0.00 0.00 0.00 25 1014.5
20260503202728 25 154 19.3 32.2 0.00 0.00 0.00 25 1014.7
20260503202228 25 228 12.9 25.7 0.00 0.00 0.00 27 1014.8
20260503201727 25 190 11.3 33.8 0.00 0.00 0.00 27 1015.1
20260503201228 25 261 11.3 33.8 0.00 0.00 0.00 29 1015.2
20260503200726 25 197 14.5 29.0 0.00 0.00 0.00 26 1015.2
20260503200227 25 252 11.3 29.0 0.00 0.00 0.00 28 1015.3
20260503195726 25 230 12.9 29.0 0.00 0.00 0.00 26 1015.5
20260503195225 26 219 16.1 29.0 0.00 0.00 0.00 28 1015.5
20260503194727 25 234 14.5 25.7 0.00 0.00 0.00 29 1015.4
20260503194227 25 206 14.5 25.7 0.00 0.00 0.00 28 1015.6
20260503193727 25 265 14.5 25.7 0.00 0.00 0.00 27 1015.6
20260503193226 25 188 8.0 25.7 0.00 0.00 0.00 28 1015.6
20260503193125 25 250 16.1 25.7 0.00 0.00 0.00 29 1015.8
20260503192226 25 244 9.7 38.6 0.00 0.00 0.00 29 1015.8
20260503191727 25 213 16.1 38.6 0.00 0.00 0.00 27 1015.8
20260503191227 25 227 16.1 35.4 0.00 0.00 0.00 29 1015.9
20260503191134 25 247 6.4 25.7 0.00 0.00 0.00 29 1016.1
20260503190226 25 165 14.5 33.8 0.00 0.00 0.00 27 1016.3
20260503185724 25 219 17.7 33.8 0.00 0.00 0.00 27 1016.3
20260503185227 25 203 11.3 25.7 0.00 0.00 0.00 28 1016.3
20260503184728 25 199 9.7 25.7 0.00 0.00 0.00 29 1016.5
20260503184226 25 233 12.9 25.7 0.00 0.00 0.00 29 1016.5
20260503183725 25 283 8.0 20.9 0.00 0.00 0.00 27 1016.6
20260503183225 24 157 11.3 20.9 0.00 0.00 0.00 27 1016.7
20260503182726 24 269 8.0 27.4 0.00 0.00 0.00 27 1016.7
20260503182226 24 216 9.7 27.4 0.00 0.00 0.00 28 1017.2
20260503181725 23 257 9.7 19.3 0.00 0.00 0.00 29 1016.9
20260503181627 24 179 12.9 24.1 0.00 0.00 0.00 30 1017.2
20260503180726 23 179 12.9 25.7 0.00 0.00 0.00 29 1017.4
20260503180226 23 228 12.9 25.7 0.00 0.00 0.00 29 1017.5
20260503180141 23 193 12.9 22.5 0.00 0.00 0.00 30 1017.5
20260503175226 23 238 9.7 24.1 0.00 0.00 0.00 32 1017.5
20260503174725 23 157 11.3 32.2 0.00 0.00 0.00 32 1017.4
20260503174227 23 278 19.3 32.2 0.00 0.00 0.00 31 1017.7
20260503173726 23 164 11.3 35.4 0.00 0.00 0.00 32 1017.7
20260503173225 23 237 16.1 35.4 0.00 0.00 0.00 33 1017.8
20260503172726 23 206 11.3 30.6 0.00 0.00 0.00 33 1017.8
20260503172227 22 162 14.5 32.2 0.00 0.00 0.00 33 1018.1
20260503172127 22 261 11.3 32.2 0.00 0.00 0.00 34 1018.0
20260503171225 22 224 9.7 24.1 0.00 0.00 0.00 33 1018.2
20260503171122 22 185 11.3 24.1 0.00 0.00 0.00 37 1018.4
20260503170633 22 244 12.9 32.2 0.00 0.00 0.00 36 1018.5